Location: Newark
(44.3681°N, 100.3364°W)
Time: 07:19:07
(UTC+00:00)

Explorer 7 - Pass Details

Date: 24 February 2020
Orbit: 485 x 679 km, 50.3° (Epoch: 08 April)

Event Time Altitude Azimuth Distance (km) Brightness Sun altitude
Rises 21:23:15 0° 290° (WNW) 2,887 10.8 26.6°
Reaches altitude 10° 21:25:44 10° 298° (WNW) 1,946 9.9 26.3°
Maximum altitude 21:29:56 40° 8° (N) 858 7.7 25.8°
Drops below altitude 10° 21:33:53 10° 79° (E) 1,826 9.1 25.3°
Sets 21:36:09 0° 87° (E) 2,684 9.9 25.0°
